TimeCST,TemperatureF,Dew PointF,Humidity,Sea Level PressureIn,VisibilityMPH,Wind Direction,Wind SpeedMPH,Gust SpeedMPH,PrecipitationIn,Events,Conditions,WindDirDegrees,DateUTC
12:53 AM,23.0,15.1,72,30.31,10.0,West,6.9,-,N/A,,Clear,270,2012-12-21 06:53:00
1:53 AM,19.9,14.0,78,30.32,10.0,Calm,Calm,-,N/A,,Clear,0,2012-12-21 07:53:00
2:53 AM,21.0,14.0,74,30.33,10.0,West,3.5,-,N/A,,Clear,270,2012-12-21 08:53:00
3:53 AM,21.0,14.0,74,30.32,10.0,West,6.9,-,N/A,,Clear,280,2012-12-21 09:53:00
4:53 AM,19.9,12.9,74,30.33,10.0,WNW,3.5,-,N/A,,Clear,300,2012-12-21 10:53:00
5:53 AM,18.0,12.9,81,30.34,10.0,Calm,Calm,-,N/A,,Clear,0,2012-12-21 11:53:00
6:53 AM,14.0,10.9,88,30.35,10.0,Calm,Calm,-,N/A,,Clear,0,2012-12-21 12:53:00
7:53 AM,15.1,10.9,84,30.38,10.0,Calm,Calm,-,N/A,,Clear,0,2012-12-21 13:53:00
8:08 AM,14.0,10.9,88,30.33,2.5,Calm,Calm,-,N/A,,Clear,0,2012-12-21 14:08:00
8:15 AM,14.0,10.9,88,30.34,9.0,Calm,Calm,-,N/A,,Clear,0,2012-12-21 14:15:00
8:53 AM,18.0,15.1,88,30.39,10.0,Calm,Calm,-,N/A,,Clear,0,2012-12-21 14:53:00
9:53 AM,24.1,16.0,71,30.40,10.0,West,3.5,-,N/A,,Clear,270,2012-12-21 15:53:00
10:53 AM,28.0,17.1,63,30.40,10.0,North,3.5,-,N/A,,Clear,10,2012-12-21 16:53:00
11:53 AM,30.9,17.1,57,30.38,10.0,Calm,Calm,-,N/A,,Clear,0,2012-12-21 17:53:00
12:53 PM,34.0,19.0,54,30.35,10.0,NE,3.5,-,N/A,,Clear,40,2012-12-21 18:53:00
1:53 PM,37.0,21.0,52,30.32,10.0,ENE,4.6,-,N/A,,Clear,70,2012-12-21 19:53:00
2:53 PM,37.9,21.9,53,30.31,10.0,East,5.8,-,N/A,,Clear,80,2012-12-21 20:53:00
3:53 PM,39.0,23.0,53,30.30,10.0,ESE,4.6,-,N/A,,Clear,120,2012-12-21 21:53:00
4:53 PM,36.0,21.9,57,30.30,10.0,ESE,6.9,-,N/A,,Clear,120,2012-12-21 22:53:00
5:53 PM,32.0,23.0,69,30.30,10.0,East,4.6,-,N/A,,Clear,90,2012-12-21 23:53:00
6:53 PM,28.0,23.0,81,30.32,10.0,East,3.5,-,N/A,,Clear,80,2012-12-22 00:53:00
7:53 PM,26.1,21.0,81,30.31,10.0,East,3.5,-,N/A,,Clear,80,2012-12-22 01:53:00
8:53 PM,26.1,21.0,81,30.30,10.0,ENE,3.5,-,N/A,,Clear,60,2012-12-22 02:53:00
9:53 PM,24.1,21.0,88,30.28,10.0,Calm,Calm,-,N/A,,Clear,0,2012-12-22 03:53:00
10:53 PM,24.1,19.9,84,30.27,10.0,ENE,3.5,-,N/A,,Clear,60,2012-12-22 04:53:00
11:53 PM,21.9,18.0,85,30.25,10.0,East,4.6,-,N/A,,Clear,80,2012-12-22 05:53:00